Dewpoint
71 70 67 65 64 64 63 64 64 64 65 65 66 66 64 63 63 63 63 63 62 62 62 63 63 64 61 61 62 62 64 66 64 63 66 68 71 70 70 71 71 72 71
67 67 65 64 63 63 63 63 64 65 65 65 65 65 64 63 63 62 61 61 61 61 62 64 63 62 65 65 61 64 63 64 63 65 66 64 68 70 71 71 67 66 69
64 63 63 63 62 63 62 63 63 64 64 64 64 64 63 62 62 61 62 62 63 63 64 64 65 66 65 64 65 63 63 65 66 66 64 66 64 65 67 68 69 70 67
62 63 63 62 63 62 62 62 62 64 63 63 63 64 63 62 60 60 61 61 61 62 64 64 64 64 64 65 64 66 66 64 64 62 61 61 62 65 65 64 63 65 65
63 62 63 64 63 62 61 61 62 63 62 62 63 62 62 61 57 60 58 58 59 61 64 64 63 62 62 62 62 64 65 63 61 61 60 60 60 61 63 64 63 63 65
62 62 63 64 63 62 61 61 62 61 61 62 62 62 61 57 59 59 57 56 57 57 60 61 62 61 61 61 61 61 62 63 64 63 61 62 65 65 64 64 63 62 61
63 63 63 63 62 62 61 61 61 61 61 61 61 63 62 61 59 58 56 56 54 55 57 59 58 57 61 62 62 61 63 61 62 64 62 63 63 65 64 63 65 66 66
63 63 63 63 62 62 60 60 60 60 60 60 60 62 63 63 59 57 54 57 55 53 56 59 59 60 60 60 61 61 62 63 63 64 65 64 63 64 65 65 66 65 65
62 63 63 62 62 61 59 60 60 60 61 59 60 60 61 62 59 55 55 56 52 52 55 59 58 59 58 58 60 59 60 61 59 59 59 57 57 57 58 61 61 62 61
62 63 64 63 62 61 60 61 61 61 60 58 59 60 60 60 56 51 52 50 50 44 52 58 55 56 55 55 57 58 57 60 60 60 60 58 57 56 60 63 61 59 60
63 64 63 62 62 61 61 61 61 61 61 61 59 58 59 60 57 48 48 50 45 41 47 53 56 53 52 53 54 56 54 56 58 57 55 54 53 52 55 57 58 55 58
64 63 63 62 60 58 61 61 61 61 60 59 60 56 54 58 51 47 46 45 48 45 50 53 55 52 51 53 54 54 53 53 52 52 51 50 49 47 49 51 54 53 51
63 62 62 62 60 60 60 60 56 58 56 57 55 53 51 50 53 50 50 46 46 47 51 52 51 51 52 52 55 53 52 50 50 49 49 48 47 47 49 51 51 54 52
62 61 61 60 60 60 58 57 56 55 55 55 54 54 53 51 48 47 47 48 44 49 50 50 51 52 49 49 52 50 49 48 47 46 47 48 48 43 40 41 39 38 40
61 60 59 58 58 58 59 57 56 58 55 54 54 54 53 52 51 46 44 42 45 48 46 48 49 49 48 47 47 48 48 48 46 47 46 46 46 43 43 44 42 41 38
58 57 55 54 53 54 55 54 52 51 50 49 48 52 55 50 43 41 41 40 42 43 44 45 46 47 47 46 46 46 47 47 46 46 46 46 45 43 43 44 46 44 43
57 57 54 52 51 52 52 50 49 49 47 46 46 46 46 49 44 40 41 41 42 43 42 43 46 47 46 47 46 46 45 46 51 48 47 46 45 44 43 42 44 44 43
58 52 53 53 52 51 51 50 50 50 49 48 47 47 44 44 43 41 41 41 44 43 43 44 45 46 47 47 47 46 46 46 46 47 47 46 46 44 42 43 44 44 44
56 54 54 53 53 52 52 51 49 49 51 50 50 47 46 43 42 41 41 47 47 46 46 45 45 45 46 48 48 49 49 47 46 46 45 45 45 44 44 44 44 45 45
56 56 54 53 53 53 52 51 50 50 50 50 49 49 49 48 47 48 47 48 48 48 48 48 47 47 46 48 49 50 49 48 47 46 47 46 45 45 44 45 45 44 45
56 56 56 54 54 53 52 53 52 51 50 48 47 49 47 49 48 48 49 50 50 50 50 50 50 50 49 49 49 49 48 48 47 46 45 46 46 44 46 46 46 45 45
60 58 57 57 57 56 57 55 55 53 52 52 52 50 45 49 49 50 51 51 51 52 51 52 51 50 50 49 48 48 47 47 47 46 45 45 46 46 46 46 45 45 45
57 57 57 57 58 57 58 56 55 54 54 54 53 53 53 53 53 52 51 52 53 52 52 51 52 49 49 49 49 48 46 46 47 47 45 45 46 46 46 46 46 46 45
54 54 54 53 53 54 54 54 55 53 54 54 54 54 54 54 55 54 54 54 53 53 55 55 53 51 50 50 48 49 49 48 47 46 48 46 46 46 47 47 46 46 46
49 48 49 49 48 49 49 49 48 50 49 48 47 50 48 50 53 54 56 57 56 56 55 54 54 54 54 52 52 51 48 39 48 44 47 48 48 49 47 46 47 47 47
44 43 43 43 44 44 44 44 44 46 44 45 46 46 44 45 46 46 48 48 45 47 50 55 57 57 57 56 56 50 42 38 41 37 47 46 46 46 46 47 48 47 46
Lifted_Index
-5 -5 -5 -4 -2 1 2 3 3 3 3 3 3 4 4 5 5 5 5 5 5 5 5 4 4 4 4 4 4 3 2 1 0 0 -0 -1 -2 -2 -2 -2 -3 -3 -3
-4 -4 -4 -2 0 2 3 3 3 3 3 3 3 4 4 5 5 6 6 6 5 5 4 4 3 3 3 3 3 3 2 1 1 0 -0 -0 -1 -1 -2 -2 -2 -2 -3
-4 -3 -1 1 2 3 4 4 4 4 4 4 4 4 5 5 6 6 6 6 5 5 4 3 3 3 3 2 2 2 2 1 1 1 1 0 0 -0 -1 -1 -1 -2 -2
-2 -1 1 2 3 4 5 5 5 5 5 4 4 4 5 5 6 6 6 6 6 5 4 3 3 3 3 3 2 2 2 1 1 1 1 1 1 1 0 -0 -1 -1 -1
1 2 3 3 4 5 5 6 6 5 5 5 5 5 5 5 6 7 7 7 7 6 5 4 4 4 4 4 4 3 2 2 2 2 2 2 1 1 1 0 -0 -0 -1
2 3 3 3 4 5 5 6 6 5 5 5 5 4 5 5 6 6 7 8 8 7 6 5 5 5 5 5 5 4 3 3 2 2 2 2 1 1 1 1 0 -0 -0
3 3 3 3 4 4 5 5 5 5 5 5 5 4 4 5 5 6 7 8 8 9 8 6 6 6 6 5 5 4 4 3 3 3 2 2 2 2 2 2 1 0 -0
2 2 3 3 3 4 4 5 4 4 5 5 5 4 4 4 5 5 6 7 8 9 8 7 6 6 6 6 5 5 4 4 4 4 3 3 3 3 3 2 1 1 0
1 1 2 2 2 3 4 4 4 4 5 5 5 5 4 4 5 6 6 7 8 10 9 8 7 7 7 7 6 6 5 4 4 4 4 4 4 4 4 3 2 1 1
1 1 1 0 1 3 4 4 4 4 5 5 5 5 5 5 6 6 6 7 9 11 10 8 8 8 8 8 8 7 6 6 5 5 5 5 5 5 4 4 3 2 2
0 0 -1 -0 1 3 4 4 4 4 4 5 5 6 6 6 6 7 7 9 11 12 10 9 8 9 9 9 9 8 8 7 7 6 6 6 6 5 5 5 5 4 3
-1 -1 -1 0 2 4 4 4 4 4 4 4 5 6 7 7 8 9 9 10 12 12 11 9 9 9 10 10 9 9 9 8 8 8 8 8 8 7 7 7 7 7 6
-1 -1 -0 2 3 4 4 4 4 5 4 4 4 5 7 8 9 10 11 12 13 12 11 10 10 10 10 10 10 9 9 10 10 9 10 10 10 10 10 10 10 9 9
-1 -0 1 3 3 4 4 4 4 4 4 4 4 5 6 7 8 10 11 12 13 12 11 10 10 10 10 10 10 10 10 10 11 10 11 11 11 12 12 12 12 11 11
1 1 3 3 4 4 4 4 4 4 4 5 5 5 5 6 7 9 10 11 11 11 11 10 10 10 10 10 10 10 11 11 11 11 11 11 11 12 12 12 11 11 10
2 3 3 4 4 4 4 5 5 5 6 6 6 5 5 6 6 8 9 9 10 10 10 10 10 9 9 10 10 10 10 10 10 10 10 10 10 10 11 10 10 9 9
3 3 4 4 5 5 5 5 6 6 6 7 7 6 6 6 7 7 8 9 9 9 9 9 9 9 9 9 9 10 10 10 10 10 9 9 9 9 10 9 9 8 8
3 3 4 4 4 5 5 5 5 5 6 6 6 6 7 7 7 8 8 8 8 8 8 9 9 9 9 9 9 9 9 9 9 9 9 9 9 9 9 8 8 7 7
3 3 3 3 3 4 4 4 4 4 5 5 5 6 6 7 7 7 7 7 7 7 8 8 8 8 9 9 9 8 8 9 9 9 8 8 8 8 8 7 7 7 7
3 3 2 2 2 2 2 2 3 3 4 4 5 5 6 6 6 6 6 6 6 7 7 7 7 8 8 8 8 8 8 8 8 8 8 8 8 8 7 7 6 6 6
2 2 2 1 1 1 1 2 2 2 2 3 4 4 5 5 5 5 5 5 5 5 6 6 6 6 7 7 7 7 7 7 7 7 7 7 7 7 7 6 6 6 6
1 1 1 1 1 1 1 2 2 2 2 2 2 3 4 4 4 3 3 4 4 4 4 5 5 5 5 6 6 6 6 6 6 6 7 7 6 6 6 5 5 5 5
1 1 1 1 1 1 1 2 2 2 2 2 2 2 2 2 2 2 2 2 3 3 3 3 3 3 4 4 4 5 5 5 5 5 6 6 5 5 5 5 5 5 5
3 2 2 2 2 2 2 2 2 2 2 2 2 1 1 1 1 1 1 2 2 2 2 2 2 2 2 2 3 3 3 4 4 5 5 5 5 4 4 4 4 4 4
6 6 5 5 5 5 4 3 3 2 2 2 2 2 2 2 1 1 1 1 1 1 1 1 1 1 1 1 2 2 2 2 3 4 4 4 4 4 4 4 4 4 4
9 9 9 9 8 8 7 6 5 4 3 2 2 2 2 2 2 2 1 1 1 1 1 1 1 0 1 1 1 1 1 1 2 3 4 4 4 4 4 4 4 4 4